Location: Bethera
(33.2010°N, 79.7880°W)
Time: 09:46:12
(UTC-04:00)

Amateur Radio Satellites - All Passes

Search period start: 23 October 2014 09:16
Search period end: 24 October 2014 09:16
Location: Bethera, 33.2010°N, 79.7880°W

Satellite Date Start Highest point End Downlink Frequencies (MHz)
Time Altitude Azimuth
HO-68 23 Oct 10:05:11 10:12:17 61° 103° (ESE) 10:19:21 435.675 MHz FM
RS-15 23 Oct 10:05:58 10:15:59 39° 253° (WSW) 10:26:25 29.354 - 29.394 USB, Beacon 29.352 USB
PANSAT 23 Oct 10:15:21 10:18:57 40° 178° (S) 10:22:33 not established
MaSat-1 23 Oct 10:20:00 10:22:22 34° 64° (ENE) 10:24:35 437.345 MHz
ZACube-1 23 Oct 10:27:09 10:27:49 10° 92° (E) 10:28:29 437.345 MHz
UKube-1 23 Oct 10:32:49 10:36:54 39° 99° (E) 10:40:58 145.840 MHz, 145.915 MHz
FUNcube-1 23 Oct 11:09:25 11:13:21 37° 98° (E) 11:17:12 145.950 - 145.970 MHz USB
Oscar 11 23 Oct 11:15:49 11:20:05 65° 284° (WNW) 11:24:19 145.825 FM, Beacon 2401.500 USB
HO-68 23 Oct 11:54:08 11:59:23 23° 298° (WNW) 12:04:39 435.675 MHz FM
PANSAT 23 Oct 11:55:23 11:58:48 31° 191° (S) 12:02:13 not established
ZACube-1 23 Oct 12:00:23 12:04:28 47° 286° (WNW) 12:08:28 437.345 MHz
UKube-1 23 Oct 12:10:14 12:12:43 15° 293° (WNW) 12:15:12 145.840 MHz, 145.915 MHz
KITSAT 1 23 Oct 12:21:50 12:29:32 50° 110° (ESE) 12:37:14 435.175 FM
ISS 23 Oct 12:22:46 12:24:59 17° 127° (SE) 12:27:14 145.800 FM
Oscar 16 23 Oct 12:43:59 12:45:27 11° 63° (ENE) 12:46:54 437.025 USB, Beacon 2401.1428
FUNcube-1 23 Oct 12:47:06 12:49:21 14° 292° (WNW) 12:51:35 145.950 - 145.970 MHz USB
Sapphire 23 Oct 13:33:43 13:38:16 27° 56° (NE) 13:42:48 437.095 MHz 1200 baud AX-25 AFSK
Oscar 19 23 Oct 13:34:01 13:38:43 37° 71° (ENE) 13:43:25 437.125 CW, 437.150 USB
PANSAT 23 Oct 13:36:31 13:38:28 14° 202° (SSW) 13:40:24 not established
SO-50 23 Oct 13:39:23 13:43:50 88° 118° (ESE) 13:48:25 436.795 FM
AO-27 23 Oct 13:48:44 13:52:30 21° 67° (ENE) 13:56:18 436.795 MHz FM
JAS-1B 23 Oct 13:49:44 13:55:35 45° 72° (ENE) 14:00:58 435.800 - 435.900 CW/SSB
PCSat 23 Oct 13:56:00 14:01:12 45° 60° (ENE) 14:06:22 145.825 MHz
ISS 23 Oct 13:58:24 14:01:28 34° 321° (NW) 14:04:32 145.800 FM
Oscar 10/S400 23 Oct 14:07:51 14:28:03 51° 155° (SSE) 14:51:00 145.825 - 145.975 CW/USB, Beacon 145.810 USB
KITSAT 1 23 Oct 14:18:01 14:25:05 33° 307° (NW) 14:32:13 435.175 FM
Oscar 16 23 Oct 14:18:57 14:24:07 74° 258° (WSW) 14:29:17 437.025 USB, Beacon 2401.1428
AO-Echo 23 Oct 14:27:08 14:31:53 63° 75° (ENE) 14:36:49 ?
Uribyol 2 23 Oct 14:35:37 14:40:46 65° 74° (ENE) 14:45:58 436.500 FM
AO-7 23 Oct 14:38:07 14:38:58 10° 50° (NE) 14:39:48 29.400 - 29.500 MHz
ITAMSAT 1 23 Oct 14:41:14 14:46:23 70° 75° (ENE) 14:51:36 435.822 SSB
Gurwin Techsat 1B 23 Oct 14:52:03 14:57:02 44° 72° (ENE) 15:02:03 435.225 FM
TMSAT-1 23 Oct 15:04:22 15:09:19 42° 72° (ENE) 15:14:16 436.925 FM
UOSAT-12 23 Oct 15:11:32 15:16:05 68° 116° (ESE) 15:20:44 437.025 FM, 437.400 FM
Oscar 19 23 Oct 15:14:16 15:18:05 21° 265° (W) 15:21:56 437.125 CW, 437.150 USB
Sapphire 23 Oct 15:16:48 15:21:41 35° 251° (WSW) 15:26:33 437.095 MHz 1200 baud AX-25 AFSK
AO-27 23 Oct 15:26:51 15:31:41 39° 261° (W) 15:36:34 436.795 MHz FM
PCSat 23 Oct 15:40:27 15:44:13 19° 255° (WSW) 15:47:58 145.825 MHz
JAS-1B 23 Oct 15:42:11 15:46:23 19° 264° (W) 15:50:22 435.800 - 435.900 CW/SSB
AO-Echo 23 Oct 16:10:07 16:11:04 11° 269° (W) 16:12:02 ?
Uosat F 23 Oct 16:11:31 16:15:35 25° 69° (ENE) 16:19:40 435.120 FM
Uribyol 2 23 Oct 16:18:52 16:20:36 12° 268° (W) 16:22:21 436.500 FM
AO-7 23 Oct 16:21:58 16:30:03 61° 69° (ENE) 16:38:10 29.400 - 29.500 MHz
ITAMSAT 1 23 Oct 16:25:10 16:26:17 11° 268° (W) 16:27:24 435.822 SSB
Gurwin Techsat 1B 23 Oct 16:33:31 16:37:08 19° 266° (W) 16:40:46 435.225 FM
TMSAT-1 23 Oct 16:45:36 16:49:20 19° 266° (W) 16:53:05 436.925 FM
UOSAT-12 23 Oct 16:54:29 16:56:41 13° 313° (NW) 16:58:55 437.025 FM, 437.400 FM
Saudisat 1A 23 Oct 16:56:35 17:00:07 23° 53° (NE) 17:03:38 436.775 MHz
JAS-2 23 Oct 17:11:12 17:15:53 26° 65° (ENE) 17:21:00 435.800 - 435.900 CW/SSB, 435.910 FM
Uosat F 23 Oct 17:49:52 17:54:12 29° 263° (W) 17:58:34 435.120 FM
OPAL 23 Oct 17:51:44 17:55:57 27° 99° (E) 18:00:07 ?
AO-7 23 Oct 18:16:49 18:23:10 24° 264° (W) 18:29:35 29.400 - 29.500 MHz
Hamsat 23 Oct 18:20:16 18:24:28 72° 77° (ENE) 18:28:39 145.90 MHz
Saudisat 1A 23 Oct 18:35:49 18:39:39 29° 248° (WSW) 18:43:27 436.775 MHz
JAS-2 23 Oct 18:55:21 19:00:36 39° 264° (W) 19:06:32 435.800 - 435.900 CW/SSB, 435.910 FM
SO-67 23 Oct 18:59:32 19:01:56 18° 72° (ENE) 19:04:20 435.3500 MHz FM
OPAL 23 Oct 19:30:35 19:34:42 27° 293° (WNW) 19:38:47 ?
STRAND 1 23 Oct 19:33:33 19:38:13 34° 98° (E) 19:42:50 ?
AO-40 23 Oct 20:17:45 23:16:01 27° 113° (ESE) 00:34:23 Beacon 2401.320
KITSAT 1 23 Oct 20:22:01 20:25:24 13° 39° (NE) 20:28:47 435.175 FM
HO-68 23 Oct 20:29:53 20:35:52 30° 65° (ENE) 20:41:51 435.675 MHz FM
ISS 23 Oct 20:30:13 20:33:19 34° 39° (NE) 20:36:24 145.800 FM
SO-67 23 Oct 20:32:23 20:34:46 18° 265° (W) 20:37:09 435.3500 MHz FM
STRAND 1 23 Oct 21:13:10 21:17:09 23° 292° (WNW) 21:21:08 ?
UKube-1 23 Oct 21:24:53 21:28:06 21° 69° (ENE) 21:31:19 145.840 MHz, 145.915 MHz
FUNcube-1 23 Oct 22:02:02 22:05:24 20° 70° (ENE) 22:08:44 145.950 - 145.970 MHz USB
Oscar 11 23 Oct 22:06:24 22:10:37 56° 75° (ENE) 22:14:52 145.825 FM, Beacon 2401.500 USB
ISS 23 Oct 22:07:36 22:09:47 16° 233° (SW) 22:11:58 145.800 FM
RS-15 23 Oct 22:11:19 22:21:52 52° 110° (ESE) 22:32:13 29.354 - 29.394 USB, Beacon 29.352 USB
KITSAT 1 23 Oct 22:14:33 22:22:33 62° 60° (ENE) 22:30:29 435.175 FM
SO-50 23 Oct 22:15:16 22:19:24 27° 54° (NE) 22:23:33 436.795 FM
HO-68 23 Oct 22:16:29 22:23:14 45° 260° (W) 22:30:03 435.675 MHz FM
ZACube-1 23 Oct 22:51:47 22:56:23 78° 77° (ENE) 23:00:58 437.345 MHz
UKube-1 23 Oct 23:00:22 23:04:04 27° 263° (W) 23:07:48 145.840 MHz, 145.915 MHz
FUNcube-1 23 Oct 23:37:27 23:41:32 31° 263° (W) 23:45:35 145.950 - 145.970 MHz USB
UOSAT-12 23 Oct 23:46:00 23:49:28 20° 51° (NE) 23:52:53 437.025 FM, 437.400 FM
MaSat-1 23 Oct 23:52:08 23:56:07 37° 109° (ESE) 23:59:49 437.345 MHz
SO-50 23 Oct 23:55:41 23:59:55 30° 248° (WSW) 00:04:09 436.795 FM
KITSAT 1 24 Oct 00:11:12 00:17:16 24° 256° (WSW) 00:23:21 435.175 FM
RS-15 24 Oct 00:24:14 00:34:19 40° 310° (NW) 00:44:26 29.354 - 29.394 USB, Beacon 29.352 USB
UOSAT-12 24 Oct 01:25:22 01:29:44 39° 247° (WSW) 01:34:01 437.025 FM, 437.400 FM
MaSat-1 24 Oct 01:29:24 01:31:49 15° 300° (WNW) 01:34:07 437.345 MHz
JAS-1B 24 Oct 01:37:40 01:42:15 18° 96° (E) 01:47:16 435.800 - 435.900 CW/SSB
Oscar 19 24 Oct 01:50:45 01:54:13 18° 94° (E) 01:57:40 437.125 CW, 437.150 USB
Oscar 16 24 Oct 02:35:03 02:40:05 56° 101° (E) 02:45:05 437.025 USB, Beacon 2401.1428
AO-Echo 24 Oct 02:38:48 02:43:28 31° 97° (E) 02:48:05 ?
RS-15 24 Oct 02:47:34 02:51:02 12° 341° (NNW) 02:54:31 29.354 - 29.394 USB, Beacon 29.352 USB
Uribyol 2 24 Oct 02:53:06 02:57:46 33° 98° (E) 03:02:23 436.500 FM
ITAMSAT 1 24 Oct 02:58:48 03:03:33 35° 98° (E) 03:08:16 435.822 SSB
Gurwin Techsat 1B 24 Oct 03:13:04 03:17:22 25° 96° (E) 03:21:38 435.225 FM
TMSAT-1 24 Oct 03:25:03 03:29:14 24° 96° (E) 03:33:24 436.925 FM
JAS-1B 24 Oct 03:26:08 03:32:55 71° 286° (WNW) 03:41:05 435.800 - 435.900 CW/SSB
Oscar 19 24 Oct 03:28:53 03:33:40 41° 288° (WNW) 03:38:26 437.125 CW, 437.150 USB
AO-27 24 Oct 03:43:48 03:49:02 78° 285° (WNW) 03:54:14 436.795 MHz FM
Sapphire 24 Oct 04:10:38 04:15:53 56° 111° (ESE) 04:21:11 437.095 MHz 1200 baud AX-25 AFSK
Oscar 16 24 Oct 04:16:13 04:18:54 15° 295° (WNW) 04:21:36 437.025 USB, Beacon 2401.1428
AO-Echo 24 Oct 04:17:37 04:22:03 28° 291° (WNW) 04:26:28 ?
Uosat F 24 Oct 04:26:19 04:26:55 10° 92° (E) 04:27:31 435.120 FM
AO-7 24 Oct 04:29:18 04:35:52 25° 97° (E) 04:42:25 29.400 - 29.500 MHz
Uribyol 2 24 Oct 04:32:53 04:37:01 25° 292° (WNW) 04:41:08 436.500 FM
PCSat 24 Oct 04:33:07 04:38:31 82° 295° (WNW) 04:43:58 145.825 MHz
ITAMSAT 1 24 Oct 04:38:45 04:42:47 23° 292° (WNW) 04:46:49 435.822 SSB
Gurwin Techsat 1B 24 Oct 04:52:35 04:57:17 33° 290° (WNW) 05:01:59 435.225 FM
OPAL 24 Oct 05:02:28 05:07:01 33° 69° (ENE) 05:11:33 ?
TMSAT-1 24 Oct 05:04:23 05:09:09 35° 289° (WNW) 05:13:53 436.925 FM
RS-15 24 Oct 05:07:03 05:11:06 12° 21° (NNE) 05:15:11 29.354 - 29.394 USB, Beacon 29.352 USB
Sapphire 24 Oct 05:56:01 05:59:39 18° 308° (NW) 06:03:17 437.095 MHz 1200 baud AX-25 AFSK
Uosat F 24 Oct 06:01:03 06:06:05 69° 285° (WNW) 06:11:04 435.120 FM
JAS-2 24 Oct 06:07:46 06:15:04 41° 97° (E) 06:22:14 435.800 - 435.900 CW/SSB, 435.910 FM
Hamsat 24 Oct 06:11:10 06:13:55 17° 95° (E) 06:16:41 145.90 MHz
AO-7 24 Oct 06:20:50 06:28:57 60° 292° (WNW) 06:37:04 29.400 - 29.500 MHz
PCSat 24 Oct 06:21:38 06:22:44 11° 313° (NW) 06:23:50 145.825 MHz
OPAL 24 Oct 06:41:41 06:45:51 24° 262° (W) 06:49:59 ?
STRAND 1 24 Oct 06:45:29 06:50:00 32° 70° (ENE) 06:54:32 ?
Saudisat 1A 24 Oct 07:00:14 07:02:43 15° 109° (ESE) 07:05:12 436.775 MHz
RS-15 24 Oct 07:17:16 07:27:43 42° 51° (NE) 07:38:32 29.354 - 29.394 USB, Beacon 29.352 USB
Hamsat 24 Oct 07:46:12 07:49:52 30° 287° (WNW) 07:53:32 145.90 MHz
JAS-2 24 Oct 07:52:50 07:59:50 38° 292° (WNW) 08:06:49 435.800 - 435.900 CW/SSB, 435.910 FM
SO-67 24 Oct 07:58:39 08:01:52 36° 98° (E) 08:05:04 435.3500 MHz FM
PANSAT 24 Oct 08:10:24 08:13:39 26° 166° (SSE) 08:16:53 not established
STRAND 1 24 Oct 08:25:05 08:29:09 24° 264° (W) 08:33:15 ?
Saudisat 1A 24 Oct 08:37:45 08:41:53 41° 303° (WNW) 08:46:04 436.775 MHz
